Tracking 30995 objects as of 7-Jul-2025
HD Live streaming from Space Station
objects crossing your sky now

STARLINK-32641

Track STARLINK-32641 now!
10-day predictions
STARLINK-32641 is classified as:


NORAD ID: 62236
Int'l Code: 2024-231U
Perigee: 453.6 km
Apogee: 455.1 km
Inclination: 53.2 °
Period: 93.5 minutes
Semi major axis: 6825 km
RCS: Unknown
Launch date: December 5, 2024
Source: United States (US)
Launch site: AIR FORCE WESTERN TEST RANGE (AFWTR)
Your satellite tracking list
SL-12 R/B(2)
Track 1 satellite(s)




NASA's NSSDC Master Catalog

Two Line Element Set (TLE):
1 62236U 24231U   25187.51673596  .00033096  00000-0  83374-3 0  9995
2 62236  53.1586 277.0168 0001071  65.0239 295.0877 15.39621415 34152
Source of the keplerian elements: AFSPC